Location: Haliburton Scout Reserve
(45.0900°N, 78.3200°W)
Time: 04:23:40
(UTC-04:00)

PCSat - Pass Details

Date: 29 May 2022
Orbit: 784 x 795 km, 67.1° (Epoch: 24 June)

Event Time Altitude Azimuth Distance (km) Brightness Sun altitude
Rises 23:41:32 0° 334° (NNW) 3,305 14.4 -20.1°
Reaches altitude 10° 23:45:16 10° 360° (N) 2,373 13.0 -20.4°
Maximum altitude 23:48:02 14° 31° (NNE) 2,105 12.2 -20.5°
Drops below altitude 10° 23:50:48 10° 62° (ENE) 2,368 12.1 -20.7°
Sets 23:54:30 0° 87° (E) 3,293 12.6 -20.9°
